Location: Buena Vista Lakes
(34.7348°N, 90.0070°W)
Time: 15:53:46
(UTC+00:00)

Daily predictions for brighter satellites

Satellite Brightness Start Highest point End
(mag) Time Altitude Azimuth Time Altitude Azimuth Time Altitude Azimuth
Lacrosse 4 Rocket 4.1 12:05:12 10° NNE 12:07:21 14° NE 12:09:32 10° E
Cosmos 1315 Rocket 2.9 12:05:21 10° S 12:09:01 75° E 12:12:45 10° NNE
Hubble Space Telescope 2.3 12:10:42 10° SW 12:13:52 26° S 12:17:04 10° ESE
Cosmos 2360 Rocket 2.3 12:08:44 10° SW 12:14:12 54° WNW 12:19:42 10° NNE
Cosmos 2278 4.4 12:09:58 10° WSW 12:14:55 31° WNW 12:19:55 10° N
USA 229 DEB 3.6 12:09:52 10° SSW 12:15:35 78° ESE 12:21:55 10° NNE
USA 229 3.6 12:09:57 10° SSW 12:15:39 77° ESE 12:21:59 10° NE
DELTA 2 R/B (1) 3.8 12:11:36 10° W 12:17:05 60° NNW 12:22:36 10° ENE
ATLAS 3B R/B 3.4 12:10:13 10° SSW 12:17:33 72° ESE 12:25:21 10° NE
Cosmos 1356 Rocket 3.4 12:14:33 10° S 12:18:21 78° E 12:22:12 10° NNE
Cosmos 2333 4.3 12:14:45 10° SSW 12:20:23 61° WNW 12:25:59 10° NNE
Cosmos 1802 Rocket 4.1 12:16:47 10° SSW 12:22:51 58° W 12:29:04 10° N
